Theta_e
351 350 350 350 349 350 350 349 349 347 346 347 345 343 341 339 338 338 339 338 336 335 335 335 332 331 332 333 333 333 333 334 335 337 337 338 338 339 339 339 339 339 338 339 339 340 341 342 342 343 343 342 339 338 336 334 334 336 338 339 339 340 340 340 339 336 332 332 332 331 331 331 331 331 332 332 333 333 334 335 334 335 335 334 334
351 351 350 350 350 350 349 348 348 347 347 346 345 343 341 340 339 339 339 337 336 335 333 332 331 330 331 333 333 332 332 333 333 334 335 336 337 338 337 337 337 337 337 338 338 338 339 339 340 341 342 343 342 341 339 337 335 333 335 337 338 338 340 340 340 338 333 330 330 331 331 330 329 329 329 330 331 332 333 333 333 333 333 333 333
350 350 350 350 350 350 349 349 348 347 347 347 345 342 340 339 339 339 338 336 335 334 332 332 331 330 330 332 333 333 332 332 332 333 334 334 335 335 335 335 335 335 336 335 335 336 337 337 338 339 340 342 342 341 341 340 338 335 333 334 335 336 338 340 340 339 335 331 330 330 330 330 329 328 328 328 329 331 332 332 333 332 332 333 332
351 350 350 350 350 350 350 349 349 348 348 347 345 342 340 339 338 337 335 335 333 332 331 332 331 331 331 331 332 333 333 332 332 332 333 333 334 334 333 334 334 333 333 333 333 335 335 336 336 337 338 340 340 341 341 341 341 339 336 333 333 333 335 338 339 339 337 335 331 329 330 330 329 328 327 327 327 328 330 331 331 331 331 331 331
351 350 351 350 350 351 350 350 350 349 349 348 345 343 341 340 338 335 334 333 332 331 331 331 331 331 331 330 331 333 333 332 332 331 332 332 333 333 332 333 333 332 333 332 333 333 333 333 334 335 336 337 338 339 341 341 341 340 340 338 335 333 333 334 335 337 338 336 332 328 329 330 329 328 328 327 327 326 328 329 329 329 330 330 330
351 351 351 351 351 351 351 351 350 350 350 349 347 345 343 341 338 335 334 332 332 331 330 330 330 330 330 330 330 331 332 332 331 331 331 331 332 332 332 332 332 332 333 333 333 333 333 333 333 334 335 334 335 336 337 339 340 340 340 340 339 337 335 334 334 335 335 334 332 331 329 328 328 327 327 327 327 326 326 327 327 327 328 329 329
351 351 352 351 351 351 351 352 351 351 351 349 348 346 344 342 339 336 334 333 332 332 331 331 331 330 330 330 330 330 331 332 331 331 331 331 331 332 332 332 332 333 333 334 334 334 334 333 333 334 333 334 333 334 335 336 337 338 339 340 340 340 339 337 336 335 335 335 334 333 331 330 329 328 327 328 328 327 326 326 326 326 327 327 328
352 352 352 352 352 352 352 353 352 352 351 350 349 348 346 345 342 338 335 334 333 332 332 331 330 330 330 330 329 330 330 331 331 331 331 331 331 331 331 332 332 333 333 334 334 335 334 334 334 334 334 334 334 334 334 335 335 336 336 337 339 340 341 341 340 338 338 337 336 336 334 334 332 330 329 328 328 327 326 326 326 326 326 327 327
353 353 353 353 353 353 353 353 353 353 353 351 350 349 348 347 346 343 339 336 333 332 331 331 331 331 331 330 330 330 330 330 331 330 330 331 331 331 331 332 332 332 333 333 334 334 334 334 334 334 334 334 334 335 335 335 335 336 335 335 336 338 339 340 342 342 341 340 339 338 337 337 336 335 334 332 330 327 326 325 325 325 325 326 326
354 353 354 353 353 353 353 354 353 354 354 353 352 350 350 349 348 346 343 340 336 334 333 333 332 332 331 331 331 330 330 330 330 330 330 330 331 332 332 332 333 333 334 334 334 333 334 334 334 335 335 337 336 336 336 336 336 337 336 336 337 337 338 339 341 342 344 343 343 342 341 341 339 339 338 337 336 334 331 328 326 325 325 326 326
354 354 354 353 354 354 354 354 354 354 354 355 353 352 352 350 350 348 346 343 339 336 335 334 334 333 332 332 331 331 331 331 330 330 331 331 332 332 332 332 333 334 335 336 335 335 335 336 336 337 338 338 338 339 338 339 339 339 339 339 339 339 339 339 340 341 343 343 344 344 344 343 342 342 342 341 340 339 338 336 333 329 327 327 326
355 355 355 354 355 355 354 355 355 355 355 355 355 355 353 352 351 350 348 346 343 339 338 336 335 334 334 333 332 332 332 331 332 332 331 332 332 333 334 334 335 336 337 337 337 337 338 339 340 340 341 341 341 342 342 342 342 342 342 342 342 342 343 342 342 343 343 343 343 344 345 345 344 343 342 342 341 342 342 342 340 337 334 332 329
356 355 355 355 355 355 355 355 356 356 357 357 357 356 355 354 353 352 350 348 346 344 340 338 337 336 336 335 335 334 333 333 332 332 332 332 333 334 335 336 338 338 339 339 340 340 341 342 343 343 344 344 345 345 345 345 345 346 345 345 345 345 346 345 345 346 346 346 346 346 346 345 344 343 341 341 342 344 344 344 343 342 341 339 337
356 356 354 354 355 355 355 356 357 358 358 358 358 357 357 356 355 354 353 351 349 347 344 341 339 337 337 336 336 336 335 334 334 334 333 333 334 335 337 338 340 341 341 342 342 343 343 345 346 345 345 346 347 347 347 348 348 348 348 348 348 348 348 349 349 349 349 348 349 348 347 347 346 345 344 344 345 346 346 345 345 345 344 343 343
355 355 354 355 356 356 357 358 358 359 359 359 359 358 358 358 357 356 356 355 353 351 349 346 342 339 338 337 338 337 336 335 335 334 334 335 335 338 340 341 342 343 344 344 345 346 346 347 348 348 348 348 349 349 349 350 350 351 351 351 350 351 352 352 352 352 352 352 352 351 350 350 350 349 349 349 348 348 348 348 347 346 346 345 344
356 356 355 357 357 357 358 358 359 360 359 359 360 359 360 360 359 359 358 358 357 355 354 350 346 342 340 339 339 338 336 335 336 336 335 337 339 341 342 343 344 344 344 345 346 347 347 348 349 349 349 350 350 350 351 352 352 353 352 353 353 354 354 354 355 355 355 355 354 354 354 354 353 353 353 352 351 351 351 350 348 347 346 345 345
357 357 357 357 357 358 358 359 360 360 360 360 360 360 361 361 361 361 361 360 360 358 357 354 351 347 344 340 340 339 336 335 337 337 338 340 342 343 344 344 345 345 345 346 347 348 348 349 350 351 351 352 352 352 353 354 354 354 354 354 355 356 356 356 356 357 357 356 356 356 356 356 355 354 354 354 353 354 351 350 350 348 346 344 345
357 357 357 357 357 358 358 359 360 360 361 361 361 361 361 362 362 362 362 361 361 360 359 357 355 352 349 346 343 342 340 338 338 339 339 341 343 344 345 346 347 346 347 348 349 349 350 350 352 352 353 353 354 354 355 355 355 356 356 357 357 358 357 358 357 358 358 358 358 357 357 357 356 356 356 355 355 354 352 352 352 350 347 345 345
357 357 358 356 357 357 357 359 360 361 362 361 362 362 362 362 362 362 363 362 362 361 361 359 358 356 355 352 350 349 346 345 344 343 342 343 344 345 347 348 348 348 349 350 350 350 351 352 353 354 354 355 355 356 356 357 357 357 358 358 359 358 358 359 358 359 358 358 358 358 357 357 357 357 356 356 355 355 354 354 353 350 347 346 347
357 357 357 357 358 358 358 359 361 361 362 362 362 362 362 363 363 362 362 362 362 362 362 361 360 359 357 357 355 354 352 351 350 349 348 348 348 348 349 349 350 350 351 351 352 352 353 354 354 355 356 356 356 357 358 358 358 358 358 359 359 359 358 359 359 358 358 358 358 357 357 357 357 357 356 356 356 356 355 355 354 352 350 348 347
358 359 359 358 359 359 360 360 361 361 363 362 362 363 363 362 363 362 362 362 362 362 362 362 361 360 359 359 357 356 356 355 354 353 353 352 351 351 351 351 351 352 352 353 354 354 355 355 356 357 358 358 358 359 359 359 360 360 360 359 358 357 357 358 358 358 358 358 358 357 357 357 356 356 356 356 356 356 355 355 355 354 353 351 349
361 360 361 361 361 361 362 362 363 362 363 363 363 363 363 363 363 363 363 362 362 362 362 362 362 361 360 360 359 358 358 357 356 356 355 355 354 354 354 354 353 354 355 355 356 356 356 357 358 359 359 360 360 360 361 361 361 361 360 360 359 358 359 359 360 360 360 360 360 359 359 358 357 357 357 357 357 357 356 356 355 354 354 353 352
359 359 360 360 360 361 361 362 362 362 363 363 363 363 362 363 363 362 363 363 362 362 362 362 362 361 361 360 360 359 359 358 358 358 357 357 356 356 356 356 355 356 357 357 357 358 358 359 360 360 361 361 361 361 361 361 362 362 362 361 360 360 360 360 361 361 361 361 360 360 360 360 360 359 359 359 358 358 358 357 356 354 353 353 353
355 355 354 355 357 358 357 358 359 360 361 361 361 362 362 363 363 363 363 363 363 362 362 362 362 361 361 361 360 360 360 360 359 359 359 359 358 358 358 358 358 358 358 359 359 359 360 361 361 361 362 362 362 362 363 363 363 362 362 361 361 361 361 362 362 362 361 361 360 360 359 359 359 358 358 357 357 358 358 358 356 355 353 353 353
349 350 350 349 351 353 355 356 356 357 357 357 357 359 360 361 362 362 362 363 363 362 362 362 362 362 361 361 361 361 360 361 360 360 360 360 360 360 360 360 360 360 360 361 361 361 362 362 363 364 363 363 363 364 364 363 363 363 363 362 361 361 361 361 360 360 360 360 359 358 357 357 357 357 356 357 357 358 358 358 357 356 354 354 353
349 347 347 346 347 349 353 354 355 356 356 356 356 355 357 359 360 361 362 362 363 363 362 362 362 362 362 362 362 362 361 361 362 362 362 363 362 362 362 362 361 361 361 362 362 363 364 364 364 364 364 364 364 363 363 363 362 362 362 361 361 361 361 361 361 360 360 360 359 357 355 354 354 354 354 354 354 352 352 354 354 354 354 353 353
356 352 350 348 348 348 351 353 356 356 356 356 356 357 357 359 360 361 362 362 362 363 363 362 363 363 362 363 363 363 363 363 363 364 365 364 364 364 364 363 363 362 362 363 363 364 364 364 364 364 363 363 362 362 362 361 361 361 361 361 361 360 358 356 354 351 350 349 347 346 343 342 342 342 342 341 341 340 341 343 345 346 347 349 350
359 359 356 353 352 353 354 355 357 358 358 357 357 358 359 360 360 361 362 363 363 363 363 363 363 363 364 363 363 364 364 365 365 365 365 364 364 364 364 364 364 364 364 364 364 363 363 363 363 362 361 361 361 361 361 361 360 360 357 355 351 347 343 340 337 335 335 334 334 334 333 332 332 332 332 333 333 332 334 336 338 339 341 344 346
357 360 359 356 356 356 357 358 360 359 358 358 358 358 360 361 362 362 363 363 364 364 365 364 365 365 365 365 365 365 365 365 365 364 364 364 364 365 366 366 366 364 364 364 364 364 363 363 362 361 361 362 361 360 359 356 351 347 342 338 335 332 331 330 330 331 331 331 331 332 332 332 332 332 332 333 333 333 334 336 337 338 339 341 343
353 358 362 360 358 359 360 360 361 360 360 359 359 360 360 362 363 363 364 364 365 365 365 365 365 366 366 366 366 366 366 365 365 365 366 366 366 366 367 366 366 365 364 364 364 363 362 362 361 361 360 357 354 350 345 339 335 332 330 330 330 329 329 329 329 330 330 329 330 331 331 332 333 333 334 334 334 334 334 335 336 338 340 341 342
353 359 364 364 361 361 362 362 361 362 361 362 361 361 362 362 363 364 364 365 365 364 364 365 365 365 366 368 368 367 367 366 366 367 367 367 367 367 366 365 364 364 363 363 362 362 361 359 357 353 348 342 337 334 331 330 330 329 329 329 329 329 329 329 329 329 329 329 330 330 330 332 333 334 334 334 334 333 333 333 334 335 337 339 341
356 359 364 366 365 364 364 364 363 363 363 363 363 363 362 362 363 364 364 365 365 364 364 366 366 367 368 368 367 366 367 367 367 367 367 366 366 365 364 364 363 363 362 361 359 356 353 348 343 337 333 331 329 329 329 329 329 329 329 329 329 329 328 328 328 328 328 329 329 330 331 332 333 332 332 331 331 331 332 332 332 333 335 337 339
355 359 362 364 366 366 365 366 365 365 365 364 364 363 363 363 363 363 364 365 365 366 366 367 368 368 368 367 365 365 366 366 366 366 366 364 364 363 363 362 361 358 355 351 347 342 337 333 331 329 329 329 329 329 329 329 328 329 329 328 328 328 327 327 328 328 329 329 329 330 331 332 332 332 331 331 331 331 331 332 333 334 335 336 337
352 358 362 363 363 364 365 365 366 366 366 366 365 365 365 366 365 364 364 364 364 365 366 368 368 367 367 366 365 364 364 363 364 363 363 362 362 360 357 353 349 344 340 337 333 331 329 328 329 329 329 329 329 329 328 329 328 328 328 327 327 327 327 327 328 327 328 328 329 329 330 330 330 330 330 330 330 331 331 332 332 333 334 335 335
351 356 360 362 362 363 363 363 364 365 366 366 367 367 367 368 367 367 367 366 365 365 365 365 365 364 364 364 363 361 360 359 359 359 358 355 351 347 343 338 335 333 331 330 329 329 328 329 328 328 328 329 329 328 328 328 328 328 328 327 327 327 327 327 327 327 327 328 328 328 328 328 328 329 329 330 330 330 330 331 331 331 333 334 335
352 355 357 360 361 362 363 363 364 365 365 366 368 368 369 369 369 368 367 366 364 363 363 362 361 360 358 357 355 353 350 349 349 349 346 341 337 334 332 331 330 329 329 329 329 329 329 329 329 329 328 328 328 327 327 328 328 328 328 327 326 326 326 326 326 326 326 326 326 327 326 327 327 327 328 329 329 330 330 330 331 331 332 332 333
351 353 355 358 360 360 362 364 364 365 366 366 367 367 367 365 365 365 364 362 360 358 355 352 350 348 346 344 341 339 337 337 336 335 334 332 330 330 330 329 329 329 330 329 330 329 329 329 329 329 329 328 328 328 327 328 328 328 328 327 326 326 326 326 326 326 326 326 325 326 325 326 326 326 327 327 328 329 329 329 329 329 330 330 331
348 349 351 354 356 357 360 362 363 363 364 363 362 361 360 358 356 356 355 354 352 350 346 341 338 337 336 334 333 332 332 331 331 331 331 331 330 330 330 330 330 331 331 331 330 330 330 329 329 329 329 329 328 328 328 329 329 329 328 326 325 325 325 325 326 325 325 325 325 325 325 325 325 325 326 326 327 327 327 327 327 327 327 328 329
345 346 346 348 351 353 356 357 357 357 357 356 354 353 353 351 348 347 347 346 344 342 339 336 334 333 333 332 332 332 331 331 331 331 331 331 331 331 332 332 332 331 332 331 331 331 331 330 330 329 330 329 329 329 329 329 329 328 327 326 325 324 324 324 325 325 325 324 324 324 324 324 323 323 324 325 326 327 327 326 326 326 326 326 326
344 345 344 345 347 349 351 353 354 353 353 352 350 349 349 347 344 342 341 340 339 337 335 334 333 333 333 333 332 332 332 332 332 332 332 332 332 332 332 332 332 332 332 331 331 331 331 331 330 330 330 330 330 330 330 330 330 328 327 326 325 324 324 324 324 325 325 324 324 323 323 323 323 323 323 323 325 326 326 325 325 325 325 325 324
344 344 344 344 345 346 347 349 351 351 351 349 347 345 344 343 341 340 338 337 336 336 334 334 334 334 333 334 333 333 333 333 332 332 333 333 333 333 333 332 332 331 331 331 331 331 331 331 330 331 330 331 331 331 331 331 329 328 327 326 324 325 325 325 324 324 325 325 324 323 323 323 323 323 322 322 324 325 325 325 325 324 323 323 323
343 343 343 343 344 345 345 347 349 349 349 347 345 343 342 341 340 339 338 337 336 335 334 334 334 334 334 334 334 334 334 334 333 333 333 333 333 334 333 332 332 332 332 332 332 331 331 330 330 331 332 331 331 331 331 331 330 328 327 327 325 324 326 325 323 323 324 324 323 322 323 322 322 323 323 322 322 323 324 324 324 324 323 323 322
342 342 342 342 343 344 345 346 347 347 346 345 344 342 341 340 339 339 338 337 337 336 336 335 335 335 335 335 335 335 335 334 334 334 333 334 334 334 333 333 333 332 332 332 332 331 331 330 331 331 332 332 332 331 331 331 330 328 327 327 326 325 326 326 324 322 323 324 323 322 321 321 321 322 321 321 320 321 321 321 322 322 322 322 322
342 342 342 342 342 343 343 343 345 344 344 343 342 342 341 340 340 339 338 337 337 336 336 336 335 335 335 335 335 335 334 334 334 334 334 334 334 333 333 333 333 332 332 332 331 331 330 330 330 331 331 331 331 331 331 331 331 330 328 328 328 327 326 326 325 323 322 322 323 322 320 319 320 320 320 320 319 319 319 319 319 320 319 320 319
341 341 341 341 342 341 341 341 342 342 342 342 341 340 340 340 339 339 338 338 337 337 336 335 335 335 334 334 334 334 333 334 334 334 334 333 333 333 332 332 332 331 332 332 331 330 330 330 330 330 329 329 329 330 330 330 331 330 329 329 329 329 328 327 326 324 322 321 322 322 320 319 319 319 319 319 319 319 318 319 318 319 319 319 318
340 340 340 340 340 340 340 340 340 340 340 340 340 340 339 339 338 338 337 337 336 336 335 334 333 332 332 332 332 332 332 332 332 332 332 332 332 331 331 331 330 331 330 330 330 329 330 330 329 328 328 328 328 329 329 329 329 330 330 329 329 329 329 327 327 326 323 321 321 321 320 319 319 318 318 318 318 318 318 318 318 318 318 318 318
338 338 338 338 338 338 338 338 338 338 338 338 338 337 337 336 336 335 335 334 334 334 333 332 331 331 331 330 329 329 329 330 330 330 331 330 330 330 330 330 330 329 329 329 329 329 329 328 328 327 327 328 329 330 330 330 329 329 329 329 329 330 330 328 327 326 325 323 321 320 320 320 319 319 318 318 317 317 318 318 318 318 318 318 318
334 334 334 334 334 335 334 334 334 334 334 334 334 334 333 333 333 333 333 332 332 331 331 330 329 329 329 329 329 328 329 329 329 329 329 329 329 328 329 328 328 327 327 328 328 328 328 328 327 326 326 327 328 329 330 331 330 330 330 330 330 330 330 329 328 327 326 324 322 320 320 320 321 321 321 320 319 319 320 320 321 321 321 321 321
330 329 328 329 329 329 329 329 329 329 329 329 330 329 329 329 329 329 329 329 328 328 328 327 327 327 327 327 327 328 327 327 327 327 326 326 326 326 326 326 325 325 325 326 327 327 326 326 326 326 325 326 327 328 329 329 330 330 330 330 330 330 331 330 329 328 327 326 324 322 322 321 322 324 324 323 322 322 323 323 324 324 324 324 324
327 326 326 325 325 325 325 325 325 325 325 325 325 325 325 325 325 325 325 326 326 325 326 326 326 325 326 325 324 325 324 324 324 324 324 323 323 323 323 323 323 323 323 324 324 324 324 324 324 324 324 324 325 326 326 327 328 328 329 329 329 330 330 331 330 330 329 328 327 326 324 323 325 325 325 324 324 324 325 325 325 324 324 324 324
325 325 325 323 322 321 322 322 321 321 322 322 322 322 322 322 323 323 323 323 323 323 323 323 322 322 322 322 321 321 321 321 321 321 321 321 321 321 320 321 321 321 321 322 322 322 322 322 322 323 323 323 323 323 323 324 324 325 326 326 327 327 328 328 329 329 329 329 328 328 327 326 326 326 326 325 325 325 325 326 326 325 324 323 323
Wind_Speed
49 48 46 45 45 45 45 45 44 43 42 42 41 40 39 37 36 36 36 36 35 34 31 29 26 25 24 25 24 24 23 23 23 23 24 25 25 25 25 25 25 24 23 23 22 21 21 21 22 21 20 20 20 20 21 21 22 22 22 23 23 23 22 23 25 24 19 17 18 17 17 19 20 20 19 19 18 18 19 20 20 20 20 19 19
49 48 46 46 45 44 44 43 43 43 42 42 41 40 40 38 37 36 36 36 36 34 33 30 29 28 27 27 27 26 25 24 24 25 25 26 26 26 26 26 26 25 25 25 23 23 23 23 23 22 21 22 22 21 22 22 24 25 25 26 25 24 24 25 26 27 24 21 20 20 20 21 22 22 21 21 20 20 21 21 21 20 20 20 20
48 47 47 46 44 43 43 43 43 43 43 42 41 40 39 38 38 37 36 36 36 35 34 32 31 30 29 29 28 28 27 26 26 26 27 27 27 27 27 27 27 27 26 25 24 24 24 24 23 23 23 23 23 23 23 23 24 26 27 28 28 27 26 27 28 30 29 26 23 23 23 23 24 23 23 24 23 24 24 23 22 22 21 21 22
49 48 47 46 44 43 43 42 43 43 43 43 42 40 39 38 38 37 37 37 37 36 35 35 34 33 32 31 30 30 29 28 27 27 27 28 28 28 27 28 28 28 27 26 25 25 25 25 24 23 24 25 25 24 25 25 25 26 27 28 29 29 28 29 31 32 33 32 29 26 26 26 26 25 25 26 26 27 27 26 25 25 24 23 24
49 48 47 46 45 44 42 42 43 44 44 44 42 40 39 39 38 37 37 37 37 37 37 36 36 35 34 33 32 32 31 30 29 28 28 28 28 28 28 28 29 29 29 28 27 27 27 26 25 24 25 26 26 25 26 26 26 27 28 28 30 30 30 31 33 33 35 37 35 32 30 30 30 28 28 28 28 28 29 28 28 28 27 26 26
49 48 47 46 46 44 43 43 43 43 43 43 42 41 41 39 38 37 37 37 37 37 37 37 37 36 35 34 34 34 33 33 32 31 30 30 30 30 29 29 29 30 30 30 30 29 29 28 27 27 28 28 27 26 26 26 27 28 29 29 30 31 32 33 34 35 37 38 38 37 36 35 34 32 31 31 31 31 31 31 31 31 31 30 29
48 48 47 47 46 45 44 42 41 41 41 41 41 41 41 40 39 37 37 37 37 37 37 37 37 37 36 36 35 35 35 35 34 33 33 32 31 31 31 31 31 30 30 30 30 30 31 31 30 30 30 30 29 28 27 28 28 29 29 30 31 32 34 35 36 37 39 39 40 40 39 38 38 36 35 34 35 35 34 35 35 34 33 33 32
48 48 47 47 46 45 43 41 40 38 38 39 40 41 42 42 40 38 37 37 37 36 36 36 36 37 37 37 37 37 37 37 37 36 35 34 33 33 32 32 32 31 31 31 30 31 31 32 32 32 32 32 31 31 30 30 31 31 31 31 32 34 35 36 38 39 40 42 42 41 41 42 41 40 38 38 39 39 38 38 39 38 36 36 35
48 48 48 47 46 44 42 41 40 38 37 38 40 41 42 42 41 40 39 38 36 36 35 36 36 37 38 38 39 39 40 40 39 38 37 36 35 35 34 34 33 33 32 32 31 32 32 32 33 33 33 33 33 33 33 33 34 34 33 34 35 36 37 38 39 40 41 43 44 43 44 45 44 42 41 41 41 41 40 41 43 42 40 40 39
48 48 48 47 45 43 42 42 41 39 38 38 39 40 41 42 42 42 41 40 37 36 36 36 37 38 38 39 40 40 41 40 39 38 38 37 36 36 36 36 35 35 34 34 34 33 33 33 33 33 34 34 34 34 34 34 35 35 35 36 38 39 39 40 41 41 42 44 45 45 46 47 46 44 43 42 41 41 42 44 46 45 44 45 45
47 48 47 46 44 43 43 42 41 40 39 38 38 39 40 41 42 42 42 41 39 37 37 37 38 38 38 39 40 41 41 40 39 38 38 38 38 38 38 37 37 37 37 36 36 36 35 35 35 35 35 35 35 35 35 35 35 36 36 37 39 40 41 42 43 43 43 45 46 46 47 48 47 45 45 44 43 43 44 44 46 47 47 49 50
46 46 45 44 43 43 42 42 41 41 39 38 37 37 38 39 41 41 42 41 39 39 39 38 38 38 39 40 41 42 42 40 39 39 39 38 38 39 39 39 39 39 39 38 38 38 38 38 38 37 37 36 36 36 36 35 35 35 36 37 39 41 42 43 44 44 45 46 47 48 49 49 49 48 47 46 45 45 45 45 46 46 47 49 52
44 43 42 42 42 42 41 41 41 40 39 38 36 36 37 39 40 40 41 40 39 39 39 39 38 38 39 41 41 42 41 40 40 39 39 38 38 39 40 40 40 40 40 40 40 39 39 39 40 39 38 38 37 37 37 36 35 35 36 37 39 40 41 42 43 44 45 47 49 51 50 50 51 50 47 46 47 47 48 47 47 47 48 49 50
42 42 41 41 40 40 40 40 39 38 37 36 36 36 37 38 38 39 39 40 40 40 40 39 39 39 40 40 41 42 41 40 39 39 39 39 39 40 41 41 41 41 41 41 40 40 40 40 41 40 39 39 39 38 37 37 36 36 37 38 39 40 41 42 42 43 44 45 48 50 49 49 51 50 48 48 49 50 51 51 50 50 50 50 50
42 40 40 39 39 38 39 38 38 37 36 35 35 36 35 36 36 37 38 38 39 39 39 39 39 39 39 40 41 42 41 39 39 39 39 39 39 40 41 41 41 41 41 41 41 41 41 41 42 41 40 40 39 38 38 37 37 38 38 39 41 42 42 43 42 42 42 43 45 47 47 47 48 48 47 49 50 50 51 53 52 51 51 52 51
40 39 39 38 37 37 37 37 37 36 35 35 36 35 34 34 34 34 34 35 36 37 38 38 38 38 38 39 41 42 40 38 38 39 38 38 39 40 41 41 41 41 40 40 40 40 40 40 41 41 40 40 39 38 38 38 38 39 40 41 42 43 44 44 42 42 43 43 43 45 45 45 45 45 45 47 49 51 53 54 54 54 53 53 54
39 39 38 37 36 36 36 36 36 35 35 36 36 35 33 32 31 31 32 33 33 34 35 35 35 36 36 37 39 40 39 37 38 38 38 38 39 40 40 40 40 40 40 39 38 38 38 38 39 40 40 40 39 38 38 38 39 40 40 41 43 45 46 44 43 43 43 43 43 44 44 44 45 45 46 47 48 50 54 57 57 56 54 54 56
38 38 37 36 35 35 35 35 35 34 35 35 34 33 32 31 30 30 31 31 30 30 30 31 32 32 33 34 36 38 38 36 36 37 37 37 38 39 39 39 39 40 40 39 38 38 38 37 38 39 40 39 39 38 38 39 40 40 40 40 43 47 46 44 43 43 43 45 46 46 46 47 47 47 47 48 48 50 55 59 59 56 54 55 56
38 38 37 35 35 35 35 35 35 34 34 34 33 32 31 30 29 29 30 31 30 30 30 31 31 31 31 32 32 34 35 34 34 35 35 35 36 37 37 38 40 40 40 39 38 38 38 38 37 38 38 38 38 38 38 39 41 41 40 40 45 48 45 42 43 44 45 47 49 49 49 49 48 48 48 48 49 50 54 58 58 56 55 57 57
35 36 37 36 36 37 36 36 36 35 34 33 32 31 30 30 30 31 31 31 31 32 32 33 33 31 31 30 30 32 32 32 31 32 32 33 33 34 36 38 39 39 38 38 38 38 38 38 37 36 36 35 35 35 35 37 39 40 40 41 44 44 41 41 44 44 44 47 49 49 50 51 50 50 50 50 51 52 53 54 55 56 57 60 59
34 35 37 37 38 38 37 37 37 36 35 33 33 33 32 31 31 31 31 31 32 33 33 34 34 33 32 31 31 31 31 31 30 30 30 31 31 32 35 36 37 37 37 37 38 37 37 36 35 33 32 31 30 30 30 32 35 38 40 40 38 37 37 39 41 42 43 46 47 48 50 50 50 51 52 53 54 54 54 53 54 54 57 60 61
27 30 33 35 37 38 38 38 37 37 36 36 36 36 35 34 33 32 32 32 33 33 34 34 35 35 34 33 32 31 31 31 31 31 30 31 31 32 33 34 33 34 35 36 36 35 34 32 30 28 27 26 26 26 26 28 31 35 39 38 33 31 34 37 38 39 42 44 45 46 47 48 48 49 51 52 53 54 54 55 56 56 56 58 59
18 20 22 25 28 30 32 34 35 35 36 36 37 37 36 36 36 35 35 35 34 34 34 34 35 36 35 34 33 32 31 30 30 30 30 30 30 31 32 32 30 31 32 33 32 31 29 27 26 25 25 25 26 26 27 29 31 33 37 37 33 31 34 37 37 37 40 43 44 46 47 47 48 49 50 50 51 51 53 55 56 56 56 57 58
16 16 17 17 18 20 22 25 28 30 31 32 34 35 36 37 37 37 36 36 36 36 35 35 35 36 35 34 33 32 31 29 29 29 29 29 29 30 30 30 28 28 29 29 28 27 26 26 26 27 28 28 29 30 31 32 33 34 36 37 35 35 36 38 38 39 41 44 46 47 47 47 48 49 49 50 50 51 54 56 56 56 56 57 58
16 17 17 17 17 17 18 19 21 24 26 27 28 29 31 34 36 37 37 37 37 37 36 35 35 35 35 34 32 31 29 28 28 27 28 28 28 28 28 27 26 25 26 26 25 25 26 26 27 29 31 31 32 32 32 33 34 36 37 38 37 38 38 39 39 39 41 43 44 46 48 48 48 49 50 50 50 52 55 56 57 58 57 58 59
12 14 15 17 18 18 17 17 18 20 22 23 24 24 25 27 30 32 34 35 36 36 36 35 35 34 34 33 32 30 28 26 26 26 26 26 26 26 26 25 24 24 24 24 23 23 24 25 26 28 30 31 31 31 31 32 33 34 35 35 35 35 36 35 36 37 39 41 43 46 49 51 52 53 52 52 53 54 55 56 57 58 57 57 59
9 10 11 13 16 17 17 18 18 20 21 22 22 22 22 23 25 27 29 31 33 34 34 34 33 33 32 31 30 28 25 23 23 23 23 22 22 21 21 21 20 20 21 21 21 22 23 24 25 26 26 26 27 27 28 29 29 29 30 32 33 34 35 35 36 37 38 40 42 45 47 48 50 52 53 53 54 55 54 54 54 55 55 55 57
8 9 9 9 12 15 16 17 18 19 20 21 22 22 22 22 23 24 25 26 28 29 29 29 29 28 28 28 26 25 23 21 21 21 19 19 18 17 18 18 18 19 21 22 22 22 22 22 23 23 23 23 24 25 26 27 28 30 31 32 33 33 34 34 34 35 35 37 38 40 42 44 46 49 51 51 53 54 52 50 51 53 52 52 55
7 8 8 7 8 12 14 15 16 18 19 20 21 22 22 22 21 21 20 21 22 23 23 23 22 21 21 21 21 21 20 19 19 18 17 17 17 18 18 19 20 21 22 21 21 20 20 21 21 21 21 22 24 26 27 28 29 29 29 28 28 28 29 29 31 33 34 36 37 39 41 42 43 46 47 48 50 51 50 49 49 51 51 51 54
6 7 7 6 6 10 12 14 16 16 17 18 20 21 21 20 19 19 18 18 17 17 17 17 17 16 17 18 19 19 19 18 18 18 19 19 19 18 18 17 18 18 18 18 18 18 19 19 20 21 23 25 26 27 26 26 25 24 23 23 24 26 28 30 32 35 36 37 39 40 40 41 42 43 43 45 47 48 47 47 48 49 50 52 54
4 5 5 5 5 8 10 12 13 14 15 17 18 19 19 19 18 18 18 16 15 15 15 15 15 15 17 18 19 19 20 20 19 18 17 17 17 16 16 16 16 17 17 17 17 17 18 19 21 22 23 23 22 22 21 21 21 21 22 24 26 28 30 31 32 34 35 36 37 38 39 40 41 41 41 42 43 44 45 45 46 47 49 50 51
4 3 5 4 4 7 9 10 11 13 14 16 16 16 17 17 18 19 19 18 17 17 17 17 17 17 18 16 14 14 17 20 19 16 14 14 14 15 15 15 16 16 15 15 16 17 19 19 19 18 18 17 17 16 17 17 19 22 25 26 27 27 28 29 29 31 32 33 34 35 37 38 39 40 40 40 41 42 43 43 44 44 45 46 47
8 3 4 5 5 6 8 10 11 12 14 15 15 15 15 16 18 18 19 19 19 19 19 18 17 17 16 14 12 11 12 13 14 13 13 14 14 14 15 15 14 14 14 14 15 15 15 14 13 13 13 13 13 13 15 18 20 22 23 23 23 23 24 26 27 28 30 30 31 31 32 33 35 36 38 39 40 42 43 44 44 43 43 43 44
10 7 4 6 7 7 8 9 10 11 13 14 15 15 16 17 18 18 18 19 20 19 17 15 14 13 12 12 12 11 11 11 11 12 13 13 13 13 13 12 12 11 11 11 11 10 10 10 10 10 10 11 12 14 16 18 19 20 19 19 19 21 22 23 24 25 26 26 27 27 28 29 31 32 34 36 37 39 41 42 42 42 42 42 43
9 8 6 6 8 9 10 10 10 11 12 14 15 16 18 19 19 19 19 19 18 17 15 14 13 13 12 11 12 12 12 11 11 11 11 11 10 10 9 9 9 9 8 8 8 7 8 8 8 9 10 11 13 15 16 16 16 17 17 17 18 19 20 20 21 23 24 25 26 26 27 27 27 28 29 31 32 33 35 37 38 39 39 39 40
7 7 7 6 6 8 11 12 12 12 13 14 17 19 20 20 20 20 18 17 16 16 16 16 15 14 12 11 10 9 9 9 8 8 8 8 8 8 8 8 8 7 7 7 6 6 6 7 8 9 11 12 13 14 15 15 14 15 16 16 17 18 17 18 20 22 23 24 25 26 27 27 26 25 25 25 26 26 27 29 30 31 32 33 34
6 6 5 6 6 7 10 12 13 14 15 17 19 21 22 21 20 20 18 16 16 16 16 15 14 13 12 10 8 7 7 7 7 7 7 8 8 8 7 7 6 6 6 6 6 6 6 7 9 10 12 13 13 13 13 13 13 14 14 14 15 15 16 17 20 21 20 21 24 26 26 25 24 23 23 23 23 23 23 23 23 22 23 24 25
5 5 4 5 6 6 8 11 13 15 18 20 20 21 21 20 19 18 18 18 17 17 16 15 14 13 13 12 11 10 9 9 9 9 9 8 8 7 6 6 5 6 6 6 6 6 7 8 10 11 12 12 12 12 12 12 12 12 12 12 13 14 15 16 17 17 18 21 23 22 21 21 22 23 23 22 22 23 23 23 21 20 20 20 19
5 4 4 5 5 5 6 7 9 11 13 15 16 17 18 17 17 17 18 19 18 17 16 16 15 13 13 13 12 12 11 11 11 10 9 8 8 7 6 5 5 6 6 6 6 6 8 9 10 10 11 11 11 11 11 10 11 10 9 10 12 13 15 16 16 15 17 20 19 18 19 21 23 24 25 25 25 24 23 21 19 17 16 14 11
4 4 4 4 4 5 5 5 6 8 10 13 15 17 17 17 18 18 18 19 19 18 17 16 15 14 13 12 12 12 11 11 10 9 8 8 7 6 5 5 6 6 6 6 6 7 8 9 9 10 10 10 10 10 9 9 9 8 7 8 11 13 15 16 16 15 16 17 16 15 17 20 21 23 26 28 27 25 22 19 17 16 16 15 14
4 4 4 4 5 6 7 7 10 13 15 17 19 20 20 19 19 18 18 18 18 17 17 16 15 14 13 12 11 10 9 9 9 9 8 8 7 6 6 6 7 7 6 6 6 7 8 9 10 11 11 10 10 9 7 7 8 7 5 6 9 11 13 16 17 15 15 14 13 13 14 16 17 20 22 24 24 24 22 20 18 17 17 17 16
5 6 6 6 6 8 10 11 14 18 20 20 20 20 19 19 18 17 16 16 15 15 15 14 13 13 12 10 9 8 8 9 8 8 8 7 6 5 5 5 7 8 8 8 8 8 9 10 11 12 12 11 11 9 7 7 8 8 5 4 7 9 11 14 17 16 13 12 11 10 11 13 14 15 17 18 19 21 21 20 19 19 19 21 22
7 7 8 9 10 11 12 14 18 20 21 20 19 18 17 16 16 15 15 14 14 13 13 12 11 11 10 8 7 6 5 6 7 6 6 6 5 5 6 8 9 10 10 11 11 11 11 11 11 11 11 11 12 11 9 8 8 8 6 5 4 6 8 11 15 15 12 11 10 8 8 10 10 11 12 14 15 17 17 18 18 19 20 21 22
9 9 10 12 13 13 14 15 17 18 19 18 17 17 16 15 14 13 12 12 12 11 10 9 9 9 7 6 5 4 4 5 6 6 6 6 6 6 8 10 11 11 11 12 12 12 12 12 12 11 10 11 12 13 11 9 8 8 8 7 6 5 6 9 12 13 11 10 9 6 4 6 7 8 9 11 12 12 13 14 15 16 17 17 18
11 11 12 14 14 14 14 15 15 16 16 16 16 16 15 14 13 12 11 11 10 9 8 8 9 8 7 6 5 5 5 6 7 7 6 6 6 7 9 12 13 13 13 12 12 12 12 13 13 12 11 10 11 12 12 11 10 9 9 9 9 9 8 9 10 11 11 10 8 5 2 2 5 6 7 8 8 9 10 11 12 13 13 14 14
12 12 13 13 13 14 14 14 15 15 16 16 16 16 15 15 14 13 13 12 12 11 10 10 9 6 4 5 5 5 5 5 5 4 4 6 7 9 11 12 13 13 12 11 10 11 11 12 12 12 10 9 10 11 12 12 12 12 12 12 12 12 12 11 11 11 11 9 7 6 5 3 2 3 4 5 6 6 6 7 8 10 10 11 11
12 12 12 12 13 14 14 15 16 16 17 17 17 17 17 16 15 14 14 13 12 11 10 8 6 4 4 5 5 5 5 4 4 4 5 6 8 8 9 9 9 10 9 8 9 10 11 12 12 12 10 8 8 10 11 12 13 14 14 15 15 15 15 14 14 12 11 9 8 7 7 6 4 3 1 1 1 1 0 1 3 4 5 5 5
11 11 11 12 13 14 15 16 16 16 17 17 17 16 15 15 14 13 12 11 9 8 7 5 4 4 5 5 5 4 4 4 4 4 5 5 6 6 6 6 7 7 7 7 8 10 11 11 11 11 10 9 9 10 11 12 13 14 15 16 17 17 17 16 16 16 14 12 11 10 10 10 10 10 9 7 6 6 6 5 4 4 3 3 3
10 9 10 12 13 14 15 15 15 15 15 15 14 13 13 12 12 11 10 8 8 7 6 5 5 5 4 4 4 4 3 3 3 3 3 3 3 2 2 2 3 3 4 5 6 9 10 10 11 11 11 10 10 10 11 11 12 14 15 16 18 19 19 19 19 19 18 16 15 14 15 15 14 14 13 11 9 8 7 6 6 6 5 5 4
8 8 9 11 13 14 14 14 13 13 12 12 13 13 13 12 12 11 10 10 10 10 9 8 7 7 6 6 6 5 5 5 5 5 5 5 4 4 4 4 4 4 5 6 7 8 9 9 10 11 11 11 12 12 12 12 12 12 13 14 16 17 19 20 21 22 21 20 18 18 18 18 18 16 15 12 10 9 8 8 8 9 9 8 7
12 13 14 15 16 16 16 17 17 16 16 16 16 17 16 16 16 16 15 14 14 13 12 11 10 9 9 8 7 6 6 6 6 6 6 6 5 5 4 5 5 5 6 7 8 9 10 11 11 12 12 13 14 14 14 14 13 12 12 13 13 14 15 17 20 22 22 21 20 19 19 20 19 17 15 13 13 12 11 11 11 11 11 9 9
Wind_Direction
220 222 224 227 228 229 231 232 232 233 234 235 236 236 236 235 235 236 238 238 238 239 239 238 239 241 242 242 239 235 235 235 236 239 241 243 244 246 248 249 250 253 254 254 252 250 250 250 251 253 255 256 255 254 252 249 247 244 244 246 247 248 250 254 261 270 277 274 272 273 273 272 272 273 274 274 273 272 273 274 274 273 272 274 276
220 223 224 226 228 230 232 233 233 234 234 235 236 236 236 235 236 237 238 239 239 240 240 240 241 242 243 244 243 241 240 240 240 241 242 244 245 247 250 251 252 254 255 256 256 255 254 253 253 253 253 255 256 255 254 253 251 248 247 249 251 251 252 254 258 265 271 273 273 274 274 272 273 274 274 275 276 275 274 273 273 273 273 273 273
221 223 224 226 229 230 232 233 234 234 234 235 236 235 235 235 236 238 238 238 240 241 241 241 242 243 243 245 246 245 243 242 242 243 244 245 246 248 250 252 253 254 255 257 258 259 259 258 258 256 255 257 257 257 257 256 255 253 251 251 253 255 255 255 258 262 268 273 273 273 273 273 275 276 277 277 277 275 273 272 272 271 270 270 270
221 222 223 226 228 230 232 233 234 234 235 236 236 235 235 236 236 237 237 238 239 240 241 242 243 243 244 245 247 246 245 244 245 245 245 246 247 249 251 252 254 254 254 256 258 259 261 261 262 261 260 260 260 260 260 259 258 257 257 257 257 258 258 257 258 261 266 270 272 273 273 273 274 276 277 277 275 274 273 273 272 271 269 268 269
219 220 223 225 227 229 231 233 234 234 235 236 237 236 236 237 237 237 236 237 237 238 240 242 243 243 244 245 246 247 247 248 250 249 249 249 250 252 253 253 254 254 254 256 257 258 260 262 264 265 264 264 263 262 262 262 261 260 260 261 262 262 262 260 260 262 264 268 272 274 274 274 273 273 274 274 274 274 273 273 273 272 270 268 267
218 220 222 224 226 228 230 231 233 235 236 238 238 238 237 237 238 237 237 237 237 238 239 241 242 243 244 246 247 248 249 251 253 253 253 253 254 254 255 255 254 255 255 256 257 258 259 261 263 263 264 265 264 263 263 264 264 264 263 263 264 265 264 263 263 263 264 267 271 273 273 274 273 273 272 273 273 273 273 273 272 270 269 267 266
218 220 222 224 226 228 229 231 233 235 238 240 240 239 238 238 238 238 238 238 238 239 240 241 242 243 245 247 248 249 251 253 254 255 256 256 257 256 256 256 256 256 257 257 258 258 259 261 262 261 262 263 265 265 266 266 266 267 267 266 266 265 265 266 265 264 265 267 269 271 273 273 274 274 274 273 272 270 269 269 269 268 267 266 266
218 220 222 224 226 229 230 231 233 236 239 241 240 240 239 239 239 239 239 240 240 240 241 242 243 244 245 247 248 250 252 254 255 256 257 258 258 258 258 258 258 258 259 259 259 260 260 261 261 262 262 263 265 266 267 268 268 269 269 269 268 267 266 267 266 265 266 267 268 271 273 273 273 273 274 273 270 269 269 268 269 271 270 268 268
218 220 222 225 227 229 231 231 233 235 238 241 241 240 240 240 239 240 240 240 241 241 242 243 244 245 247 247 249 251 252 254 255 256 258 258 259 260 261 261 261 261 261 262 262 261 261 261 261 262 264 265 266 267 267 268 269 269 270 270 271 270 270 269 268 267 267 268 269 271 272 272 273 273 273 272 271 271 272 270 270 272 272 270 270
219 220 222 225 228 230 231 231 233 234 237 240 242 241 241 241 241 241 241 241 241 242 242 243 244 246 247 248 250 251 252 254 255 256 258 259 260 262 263 263 264 264 265 265 265 264 264 264 265 266 267 268 268 268 268 269 269 270 270 271 271 272 272 272 271 270 270 270 271 272 273 273 275 276 276 277 277 276 274 271 271 273 272 269 270
219 221 223 226 229 230 230 231 232 234 237 240 242 242 242 242 242 242 242 242 242 242 243 244 245 245 247 248 250 251 252 253 255 257 259 260 261 263 264 265 266 266 267 267 268 268 269 269 271 271 272 272 272 272 272 272 272 272 272 273 273 273 273 274 274 273 273 273 274 274 273 275 277 279 279 280 280 278 277 275 274 273 271 269 270
219 221 224 227 229 230 231 233 233 235 237 239 241 243 243 243 243 243 243 243 243 244 243 244 245 245 247 248 249 251 252 253 255 257 259 261 262 263 264 266 267 267 268 269 271 273 274 274 275 276 276 276 277 277 278 277 277 276 276 275 275 274 274 274 274 274 274 275 276 275 274 276 279 279 279 281 282 281 280 278 276 275 274 272 271
219 222 227 229 230 231 232 234 235 236 238 239 241 243 243 244 244 244 245 245 245 245 245 246 246 246 247 249 249 251 252 253 255 256 259 261 262 264 265 265 267 268 269 271 273 275 276 277 278 278 280 280 280 281 281 282 282 282 281 280 278 276 275 275 275 275 274 275 275 275 276 277 278 280 281 282 282 281 279 278 278 277 275 274 276
220 225 229 230 231 233 234 235 237 238 240 240 241 243 243 245 246 246 246 246 246 247 247 247 247 248 248 250 251 252 253 254 255 257 259 261 263 264 265 266 267 268 270 271 273 274 276 277 278 280 281 281 281 282 283 284 285 285 285 283 282 281 280 278 277 276 275 274 274 276 279 278 279 282 284 283 281 280 280 280 281 281 280 281 283
222 227 230 231 232 233 234 235 237 239 240 240 241 242 243 245 246 246 247 247 248 249 249 250 250 250 250 251 253 254 254 254 256 257 259 261 263 265 266 267 267 269 270 271 272 274 275 276 278 280 281 281 282 283 284 285 285 286 286 286 287 287 285 283 282 281 279 277 277 279 281 280 280 283 283 282 281 281 282 282 282 281 281 281 280
224 227 230 231 232 233 234 236 237 239 239 239 240 241 242 244 245 246 247 248 250 250 251 251 251 252 253 254 254 255 255 255 257 258 260 262 264 265 266 267 269 269 271 272 272 274 275 276 277 279 280 281 282 283 285 285 285 285 286 287 289 289 288 288 288 287 285 283 283 283 284 283 282 282 282 280 279 280 280 279 277 275 273 271 272
225 228 231 233 234 235 236 237 238 239 239 239 240 241 242 244 245 246 246 247 249 250 250 252 253 253 255 255 256 257 257 258 259 260 262 263 264 266 267 268 270 271 272 273 273 274 275 276 277 278 279 280 281 283 284 283 282 282 284 286 288 287 288 288 289 290 290 288 287 286 287 287 284 283 282 279 278 278 274 271 271 269 266 264 266
228 230 233 236 238 238 239 239 240 241 240 240 242 243 244 245 245 246 247 248 250 251 253 254 255 256 256 256 258 260 261 262 263 263 265 266 266 267 268 270 271 272 273 274 275 276 277 277 278 278 279 281 282 283 282 280 279 279 280 284 285 285 286 287 288 290 291 289 288 287 287 288 286 284 283 279 277 275 269 267 269 266 262 261 263
232 234 237 240 241 241 242 242 242 243 243 243 245 246 247 248 248 249 249 251 253 254 254 255 255 256 257 258 260 262 263 265 266 266 268 267 268 269 269 270 271 272 274 276 277 279 280 281 281 281 282 284 284 284 283 280 279 279 278 281 283 284 287 288 287 288 288 287 287 287 287 288 286 285 285 283 280 275 270 270 270 265 260 261 262
236 238 240 242 243 244 244 245 245 245 246 247 249 249 250 250 250 251 251 253 254 254 254 255 255 256 258 260 261 263 264 266 267 268 269 269 269 270 269 270 272 273 276 278 279 281 282 283 285 286 288 290 289 289 287 284 283 282 278 278 281 285 290 291 288 287 288 287 286 285 286 287 286 285 286 285 282 279 275 274 272 267 262 261 260
236 238 239 241 243 245 246 247 248 250 250 251 252 251 252 252 252 252 254 254 255 255 255 255 256 257 258 259 261 263 265 267 268 269 270 270 270 270 270 271 273 276 278 279 280 281 283 285 288 290 293 294 292 292 291 288 288 285 278 276 281 288 294 294 291 290 290 289 287 285 285 285 284 284 285 285 285 283 280 278 277 273 268 262 259
228 233 237 240 242 244 246 247 249 251 252 253 252 252 253 253 253 253 254 254 255 256 257 257 257 258 258 259 260 262 264 266 268 270 271 271 271 271 271 273 275 277 278 278 279 281 284 288 291 293 293 293 290 290 290 288 288 286 281 279 283 289 292 294 293 292 292 290 289 289 288 287 286 286 286 286 288 288 286 283 282 279 273 268 265
214 221 228 234 239 242 245 247 248 250 251 252 252 253 253 253 252 252 252 253 254 255 256 257 257 257 258 259 260 263 265 267 269 270 272 272 272 272 273 274 276 276 276 277 279 282 286 288 290 290 288 287 286 287 288 287 288 289 286 284 286 289 293 294 293 293 293 294 294 293 293 293 293 292 291 291 292 293 291 289 286 281 276 274 272
219 222 224 228 234 240 246 249 249 248 249 249 250 252 252 252 251 251 251 252 252 253 255 256 256 257 258 260 262 264 265 268 270 272 273 273 273 274 274 275 275 274 274 276 279 282 284 285 286 286 285 285 287 288 290 292 293 293 292 291 291 294 296 295 295 295 295 294 294 294 293 292 293 292 292 292 293 294 293 290 286 281 278 277 277
230 233 233 233 234 236 241 245 246 246 246 245 247 250 251 251 250 250 251 251 251 252 254 255 256 257 259 261 263 265 266 269 271 272 273 273 273 273 273 273 272 271 271 274 276 279 281 283 283 284 285 287 290 291 292 293 293 292 292 292 292 294 294 294 293 293 291 291 291 291 290 290 290 289 289 289 289 288 287 287 286 284 282 280 278
240 240 239 238 235 233 233 235 237 239 241 242 245 249 250 251 251 251 251 251 251 252 253 255 256 258 259 261 263 265 267 269 270 271 271 271 271 272 271 271 269 267 268 270 272 274 277 278 279 281 284 286 288 288 287 287 288 288 290 291 292 292 292 291 289 288 286 286 287 287 288 289 289 288 288 287 285 283 282 283 284 284 284 282 280
253 255 247 239 234 231 230 230 231 233 233 235 240 245 247 249 250 250 251 251 252 252 253 254 256 258 260 262 264 266 268 267 267 268 268 270 271 270 269 268 265 263 263 266 269 271 272 273 274 277 280 281 281 282 283 284 287 289 291 292 292 291 290 290 289 287 286 286 285 285 286 288 288 288 287 286 285 284 284 282 282 282 283 283 281
258 272 267 248 234 229 228 229 230 230 228 228 232 235 238 241 244 247 250 252 253 254 255 257 259 261 264 266 266 266 266 264 263 264 265 266 265 263 262 262 261 261 260 261 263 266 268 270 271 273 276 278 280 282 285 288 291 292 292 292 293 294 295 296 296 296 296 294 292 291 292 293 293 293 292 289 289 289 287 285 284 283 282 282 279
256 274 282 269 239 228 229 228 228 227 225 225 227 228 229 232 235 240 246 249 253 257 259 262 264 266 267 266 264 262 261 259 258 258 258 259 258 259 262 263 262 261 259 259 261 265 267 270 273 276 280 284 286 288 289 290 291 291 292 294 296 299 302 304 306 307 306 305 303 301 300 300 298 297 295 292 291 291 290 287 285 284 283 281 277
259 265 283 282 246 229 230 229 228 228 228 228 228 226 224 226 229 233 238 241 246 251 255 259 261 262 261 260 258 256 255 254 255 257 259 259 258 258 261 262 262 261 261 262 265 267 270 275 281 285 287 288 288 289 290 291 293 295 299 303 306 309 311 312 312 311 310 309 308 307 305 302 299 298 295 291 290 289 287 285 284 283 281 279 275
284 252 263 275 249 232 231 231 230 229 229 230 230 226 223 223 225 228 231 232 233 239 246 251 252 253 256 260 258 254 250 249 251 256 259 257 256 257 259 261 262 262 263 265 269 274 279 284 286 287 288 287 288 291 294 297 303 308 311 314 316 316 316 316 315 315 315 315 313 311 309 306 303 301 298 295 293 290 287 284 283 281 279 277 274
339 260 240 249 241 229 229 230 228 226 224 223 223 223 224 224 223 223 225 225 226 231 238 244 247 251 256 259 258 253 249 245 243 245 248 248 250 254 257 259 260 262 266 272 277 281 282 283 282 283 285 287 291 297 303 310 317 320 321 321 321 320 320 321 322 324 324 324 322 319 315 311 308 306 304 303 302 299 295 291 287 285 283 281 278
354 319 242 237 241 235 227 223 222 221 220 219 219 221 223 225 226 226 225 224 227 233 238 243 247 249 250 251 251 251 250 244 238 238 241 243 245 249 253 257 261 266 272 276 277 276 276 276 279 282 287 293 302 312 321 326 328 328 327 327 327 328 330 331 332 332 332 332 331 328 325 321 316 312 309 306 302 299 297 295 293 291 288 285 284
346 339 287 242 244 248 240 230 223 221 221 221 223 226 225 225 228 230 228 226 228 231 233 234 236 235 236 240 243 240 237 234 231 231 234 238 244 249 255 261 266 269 270 269 267 268 270 275 281 288 298 311 321 327 331 331 330 330 331 332 334 336 338 339 339 339 340 341 340 338 336 332 327 320 314 308 303 297 294 294 294 294 292 289 288
331 329 313 265 245 244 244 240 233 228 226 226 227 228 227 225 224 224 224 224 224 221 216 213 215 217 220 225 227 223 218 217 218 222 227 234 240 245 251 256 257 257 258 259 263 269 276 285 296 306 317 325 327 327 329 330 330 333 334 336 339 341 342 342 344 345 345 344 344 344 343 339 335 329 323 318 312 305 299 296 294 293 293 293 292
324 322 317 298 267 250 244 239 232 227 227 227 227 224 220 218 217 216 215 217 215 209 204 200 199 200 203 209 215 213 208 205 208 214 219 219 218 221 229 237 241 246 253 263 273 284 295 307 314 317 321 321 321 323 326 327 330 334 337 339 342 344 345 345 346 346 345 345 347 347 345 342 340 338 335 332 327 321 314 308 301 296 293 294 295
325 321 314 303 285 262 244 235 229 223 217 215 214 212 207 204 204 203 202 200 196 193 188 182 178 177 176 176 178 179 176 175 180 187 190 191 194 203 214 221 228 240 254 266 280 293 304 311 312 315 318 318 318 322 324 323 326 333 338 343 347 350 350 349 347 348 350 352 354 352 349 348 348 348 349 348 346 343 339 333 328 323 319 316 314
326 321 310 301 292 264 234 223 219 213 208 204 201 197 193 188 184 183 181 178 177 176 173 168 164 163 161 159 160 163 166 169 172 173 175 180 188 196 205 213 225 239 253 266 282 294 304 310 311 315 319 319 319 322 320 318 323 332 339 348 355 356 354 352 352 356 359 360 359 1 4 8 9 8 8 7 6 5 3 358 355 354 351 344 336
310 309 298 292 285 264 239 228 218 210 205 199 192 186 182 179 175 173 171 167 165 165 164 162 163 162 161 160 163 166 171 174 174 174 178 185 193 200 207 218 232 243 256 272 285 296 304 309 311 315 319 321 322 322 318 317 325 334 342 352 359 1 360 359 359 0 2 2 5 14 22 23 24 24 25 24 23 21 18 15 15 17 17 18 21
277 270 265 264 259 248 239 226 208 193 185 180 177 175 174 174 172 169 165 161 160 162 163 164 165 163 162 164 166 170 178 182 181 183 188 190 194 202 211 227 243 253 264 278 290 299 303 306 310 314 317 320 322 320 316 318 327 333 339 352 3 5 2 359 358 358 359 3 10 20 24 25 29 32 33 34 33 31 30 31 35 43 51 59 70
236 220 216 226 236 237 228 209 191 180 174 171 170 167 166 166 165 164 162 161 160 162 163 164 162 160 160 163 167 175 190 197 194 197 202 203 205 214 223 239 257 267 279 293 303 308 310 314 317 318 317 317 319 315 307 311 323 327 328 350 7 7 358 354 355 356 356 358 6 17 24 27 33 37 39 42 45 44 44 48 52 59 67 76 86
205 199 200 203 208 213 210 198 186 178 173 171 169 165 163 162 161 162 162 161 160 160 160 158 157 156 159 166 174 185 203 212 211 213 220 223 228 240 259 283 298 307 318 326 328 323 321 322 323 321 317 314 311 306 297 298 313 320 311 327 4 6 353 349 353 353 349 348 355 9 20 25 33 42 48 54 58 60 61 64 67 73 82 92 100
194 196 199 193 186 184 182 179 176 175 172 169 168 166 165 163 161 161 161 159 157 157 156 154 153 155 159 167 177 187 204 217 220 225 234 242 255 279 304 317 322 327 331 332 330 324 321 322 322 319 317 312 306 302 296 292 304 314 307 296 331 353 345 342 348 350 343 334 336 352 19 30 36 49 59 62 64 67 71 76 80 84 89 97 104
191 190 188 182 177 174 172 169 170 172 172 171 171 170 170 170 168 166 165 162 158 157 157 157 159 163 168 177 190 209 233 239 236 236 244 254 269 293 311 317 319 319 319 321 321 320 318 317 315 312 312 311 306 301 297 290 291 303 305 292 290 312 326 329 337 342 338 326 318 328 20 46 49 62 73 72 67 68 74 82 89 93 96 101 106
190 185 180 177 176 175 172 171 172 175 176 177 177 176 175 175 175 172 173 172 169 167 168 166 163 164 172 186 204 223 237 238 233 234 244 260 279 297 305 306 307 309 312 315 317 317 316 314 311 308 308 309 308 304 300 293 286 288 296 296 290 291 297 306 317 327 331 324 308 292 288 70 74 83 88 83 75 71 76 84 90 95 100 106 111
189 184 180 179 178 177 176 176 177 179 180 180 181 180 178 178 178 177 178 177 172 169 170 170 167 172 190 206 217 228 229 227 233 250 269 285 293 296 297 298 301 308 314 318 320 322 321 319 319 317 315 314 315 311 306 301 294 288 286 289 290 288 288 290 296 306 315 315 300 273 254 234 136 112 106 101 94 88 88 95 98 98 99 103 108
186 186 186 187 186 185 184 182 181 181 180 179 178 177 175 174 174 173 171 170 168 171 177 182 192 222 240 234 236 248 249 250 266 281 283 281 281 281 282 286 294 305 315 324 329 329 326 324 326 328 328 325 321 313 304 299 296 291 287 286 288 287 284 282 283 288 294 295 288 276 268 265 267 270 257 202 168 145 110 142 141 128 119 117 120
184 188 192 195 194 190 185 181 178 177 175 173 172 171 171 172 173 174 175 178 182 189 197 205 217 231 230 224 226 237 238 237 249 257 256 255 255 257 263 274 286 299 313 327 332 329 327 327 328 331 334 331 324 314 302 292 288 287 288 287 286 286 282 278 277 277 277 274 270 268 269 274 284 291 290 281 274 278 281 273 254 235 215 199 200
178 186 194 197 193 187 181 177 177 177 177 177 178 178 177 179 179 179 181 186 186 185 187 188 186 188 189 187 186 186 184 186 198 203 201 200 202 219 262 293 310 320 330 338 337 332 332 334 335 337 338 335 328 321 314 303 292 287 285 284 283 283 282 279 275 273 271 267 263 261 262 267 276 283 285 282 277 275 278 277 268 261 256 251 244
164 174 182 181 176 171 169 167 166 166 167 166 162 157 154 153 151 149 150 152 150 146 145 145 145 143 140 134 129 124 119 115 114 115 114 108 97 80 61 44 33 18 6 2 354 345 342 344 346 346 345 343 338 332 327 320 310 299 293 290 289 288 286 281 274 270 267 265 262 260 259 262 268 273 276 272 263 261 268 276 278 277 274 270 263
143 142 138 135 134 137 140 138 136 135 135 135 134 132 132 132 131 131 132 133 131 128 127 127 126 124 122 119 115 110 106 101 98 94 86 77 68 56 41 30 25 16 5 356 349 345 344 345 345 345 346 345 344 341 337 333 326 318 311 307 305 304 300 292 281 271 266 264 263 261 259 260 262 264 263 259 256 258 263 268 272 274 271 264 257